| time (UTC) | temp F | wind direction | speed knots | gust knots | rain 1hr in | rain 24hr in | rain mn in | humidity % | barometer mb |
| 20260504221005 | 72 | 135 | 3.5 | 11.3 | 0.00 | 0.00 | 0.00 | 44 | 1009.9 |
| 20260504220527 | 72 | 132 | 2.6 | 11.3 | 0.00 | 0.00 | 0.00 | 44 | 1009.9 |
| 20260504220026 | 72 | 139 | 2.6 | 11.3 | 0.00 | 0.00 | 0.00 | 43 | 1009.9 |
| 20260504215526 | 72 | 131 | 3.5 | 10.4 | 0.00 | 0.00 | 0.00 | 43 | 1009.8 |
| 20260504215026 | 72 | 128 | 3.5 | 12.2 | 0.00 | 0.00 | 0.00 | 43 | 1009.8 |
| 20260504214527 | 72 | 145 | 3.5 | 12.2 | 0.00 | 0.00 | 0.00 | 43 | 1009.9 |
| 20260504214026 | 72 | 135 | 4.3 | 11.3 | 0.00 | 0.00 | 0.00 | 43 | 1009.9 |
| 20260504213507 | 72 | 133 | 5.2 | 13.0 | 0.00 | 0.00 | 0.00 | 41 | 1009.9 |
| 20260504213026 | 73 | 147 | 5.2 | 13.0 | 0.00 | 0.00 | 0.00 | 40 | 1009.9 |
| 20260504212505 | 74 | 155 | 4.3 | 10.4 | 0.00 | 0.00 | 0.00 | 40 | 1009.9 |
| 20260504212026 | 74 | 145 | 4.3 | 10.4 | 0.00 | 0.00 | 0.00 | 39 | 1009.9 |
| 20260504211505 | 74 | 145 | 3.5 | 13.0 | 0.00 | 0.00 | 0.00 | 38 | 1009.9 |
| 20260504211005 | 74 | 149 | 3.5 | 13.0 | 0.00 | 0.00 | 0.00 | 38 | 1009.9 |
| 20260504210505 | 74 | 137 | 4.3 | 11.3 | 0.00 | 0.00 | 0.00 | 38 | 1009.9 |
| 20260504210026 | 74 | 140 | 5.2 | 11.3 | 0.00 | 0.00 | 0.00 | 39 | 1009.9 |
| 20260504205504 | 75 | 135 | 4.3 | 12.2 | 0.00 | 0.00 | 0.00 | 37 | 1010.0 |
| 20260504205026 | 75 | 136 | 3.5 | 12.2 | 0.00 | 0.00 | 0.00 | 38 | 1010.1 |
| 20260504204526 | 76 | 121 | 3.5 | 10.4 | 0.00 | 0.00 | 0.00 | 38 | 1010.1 |
| 20260504204005 | 76 | 119 | 2.6 | 10.4 | 0.00 | 0.00 | 0.00 | 38 | 1010.0 |
| 20260504203526 | 76 | 126 | 2.6 | 9.6 | 0.00 | 0.00 | 0.00 | 37 | 1010.1 |
| 20260504203027 | 77 | 130 | 2.6 | 8.7 | 0.00 | 0.00 | 0.00 | 36 | 1010.0 |
| 20260504202526 | 78 | 152 | 1.7 | 7.8 | 0.00 | 0.00 | 0.00 | 35 | 1010.1 |
| 20260504202004 | 78 | 181 | 1.7 | 7.8 | 0.00 | 0.00 | 0.00 | 35 | 1010.2 |
| 20260504201505 | 78 | 171 | 2.6 | 6.1 | 0.00 | 0.00 | 0.00 | 34 | 1010.2 |
| 20260504201005 | 78 | 170 | 1.7 | 6.1 | 0.00 | 0.00 | 0.00 | 34 | 1010.2 |
| 20260504200505 | 78 | 187 | 1.7 | 6.1 | 0.00 | 0.00 | 0.00 | 35 | 1010.3 |
| 20260504200005 | 77 | 137 | 2.6 | 9.6 | 0.00 | 0.00 | 0.00 | 37 | 1010.4 |
| 20260504195526 | 76 | 120 | 2.6 | 9.6 | 0.00 | 0.00 | 0.00 | 35 | 1010.4 |
| 20260504195026 | 76 | 146 | 2.6 | 7.0 | 0.00 | 0.00 | 0.00 | 35 | 1010.6 |
| 20260504194526 | 77 | 169 | 2.6 | 7.0 | 0.00 | 0.00 | 0.00 | 34 | 1010.6 |
| 20260504194005 | 76 | 121 | 2.6 | 10.4 | 0.00 | 0.00 | 0.00 | 36 | 1010.7 |
| 20260504193525 | 76 | 132 | 3.5 | 10.4 | 0.00 | 0.00 | 0.00 | 33 | 1010.8 |
| 20260504193005 | 77 | 156 | 3.5 | 10.4 | 0.00 | 0.00 | 0.00 | 35 | 1011.0 |
| 20260504192526 | 77 | 159 | 3.5 | 10.4 | 0.00 | 0.00 | 0.00 | 33 | 1011.0 |
| 20260504192005 | 78 | 184 | 2.6 | 10.4 | 0.00 | 0.00 | 0.00 | 34 | 1011.1 |
| 20260504191526 | 77 | 176 | 3.5 | 10.4 | 0.00 | 0.00 | 0.00 | 34 | 1011.1 |
| 20260504191006 | 77 | 160 | 2.6 | 7.0 | 0.00 | 0.00 | 0.00 | 33 | 1011.2 |
| 20260504190526 | 78 | 170 | 2.6 | 7.0 | 0.00 | 0.00 | 0.00 | 33 | 1011.3 |
| 20260504190004 | 78 | 203 | 2.6 | 7.0 | 0.00 | 0.00 | 0.00 | 33 | 1011.3 |
| 20260504185526 | 77 | 203 | 2.6 | 7.0 | 0.00 | 0.00 | 0.00 | 35 | 1011.4 |
| 20260504185005 | 77 | 148 | 2.6 | 7.8 | 0.00 | 0.00 | 0.00 | 35 | 1011.4 |
| 20260504184505 | 77 | 143 | 2.6 | 7.8 | 0.00 | 0.00 | 0.00 | 34 | 1011.6 |
| 20260504184005 | 78 | 155 | 2.6 | 7.8 | 0.00 | 0.00 | 0.00 | 35 | 1011.7 |
| 20260504183526 | 78 | 172 | 1.7 | 7.8 | 0.00 | 0.00 | 0.00 | 33 | 1011.7 |
| 20260504183026 | 77 | 179 | 2.6 | 8.7 | 0.00 | 0.00 | 0.00 | 33 | 1011.7 |
| 20260504182526 | 77 | 167 | 2.6 | 8.7 | 0.00 | 0.00 | 0.00 | 33 | 1011.8 |
| 20260504182026 | 77 | 122 | 1.7 | 7.0 | 0.00 | 0.00 | 0.00 | 32 | 1011.8 |
| 20260504181525 | 77 | 126 | 2.6 | 7.0 | 0.00 | 0.00 | 0.00 | 32 | 1011.9 |
| 20260504181026 | 77 | 140 | 1.7 | 6.1 | 0.00 | 0.00 | 0.00 | 33 | 1012.0 |
| 20260504180506 | 76 | 172 | 2.6 | 8.7 | 0.00 | 0.00 | 0.00 | 33 | 1012.0 |
| 20260504180026 | 76 | 168 | 2.6 | 8.7 | 0.00 | 0.00 | 0.00 | 33 | 1012.1 |
| 20260504175506 | 76 | 126 | 2.6 | 9.6 | 0.00 | 0.00 | 0.00 | 32 | 1012.1 |
| 20260504175025 | 76 | 141 | 2.6 | 9.6 | 0.00 | 0.00 | 0.00 | 31 | 1012.2 |
| 20260504174526 | 76 | 165 | 2.6 | 6.1 | 0.00 | 0.00 | 0.00 | 33 | 1012.1 |
| 20260504174005 | 76 | 172 | 2.6 | 8.7 | 0.00 | 0.00 | 0.00 | 32 | 1012.3 |
| 20260504173526 | 75 | 176 | 3.5 | 9.6 | 0.00 | 0.00 | 0.00 | 35 | 1012.4 |
| 20260504173027 | 75 | 172 | 3.5 | 9.6 | 0.00 | 0.00 | 0.00 | 32 | 1012.4 |
| 20260504172505 | 75 | 202 | 3.5 | 11.3 | 0.00 | 0.00 | 0.00 | 32 | 1012.4 |
| 20260504172005 | 75 | 213 | 3.5 | 11.3 | 0.00 | 0.00 | 0.00 | 31 | 1012.6 |
| 20260504171526 | 75 | 232 | 3.5 | 9.6 | 0.00 | 0.00 | 0.00 | 32 | 1012.5 |
| 20260504171006 | 74 | 225 | 3.5 | 9.6 | 0.00 | 0.00 | 0.00 | 32 | 1012.6 |
| 20260504170504 | 74 | 205 | 4.3 | 9.6 | 0.00 | 0.00 | 0.00 | 31 | 1012.6 |
| 20260504151004 | 70 | 153 | 2.6 | 7.8 | 0.00 | 0.00 | 0.00 | 39 | 1014.0 |
| 20260504150526 | 69 | 170 | 2.6 | 7.8 | 0.00 | 0.00 | 0.00 | 39 | 1014.0 |
| 20260504141005 | 64 | 230 | 2.6 | 7.0 | 0.00 | 0.00 | 0.00 | 45 | 1014.3 |
| 20260504140505 | 64 | 203 | 2.6 | 7.0 | 0.00 | 0.00 | 0.00 | 46 | 1014.4 |
| 20260504130526 | 59 | 182 | 3.5 | 8.7 | 0.00 | 0.00 | 0.00 | 52 | 1014.7 |
| 20260504110505 | 51 | 175 | 2.6 | 8.7 | 0.00 | 0.00 | 0.00 | 66 | 1015.2 |
| 20260504100526 | 51 | 204 | 1.7 | 7.0 | 0.00 | 0.00 | 0.00 | 67 | 1015.3 |
| 20260504082004 | 50 | 166 | 0.9 | 1.7 | 0.00 | 0.00 | 0.00 | 67 | 1015.5 |
| 20260504081526 | 50 | 171 | 0.0 | 3.5 | 0.00 | 0.00 | 0.00 | 67 | 1015.5 |
| 20260504081027 | 50 | 184 | 0.9 | 3.5 | 0.00 | 0.00 | 0.00 | 67 | 1015.5 |
| 20260504080525 | 50 | 185 | 0.9 | 3.5 | 0.00 | 0.00 | 0.00 | 67 | 1015.5 |
| 20260504050504 | 43 | 0 | 0.0 | 0.0 | 0.00 | 0.00 | 0.00 | 75 | 1015.6 |
| 20260504045505 | 43 | 0 | 0.0 | 0.0 | 0.00 | 0.00 | 0.00 | 76 | 1015.6 |
| 20260504045026 | 43 | 0 | 0.0 | 0.0 | 0.00 | 0.00 | 0.00 | 77 | 1015.7 |
| 20260504044526 | 43 | 0 | 0.0 | 0.0 | 0.00 | 0.00 | 0.00 | 77 | 1015.8 |
| 20260504044004 | 43 | 0 | 0.0 | 0.0 | 0.00 | 0.00 | 0.00 | 78 | 1015.8 |
| 20260504043526 | 43 | 0 | 0.0 | 0.0 | 0.00 | 0.00 | 0.00 | 79 | 1015.8 |
| 20260504043025 | 43 | 0 | 0.0 | 0.0 | 0.00 | 0.00 | 0.00 | 79 | 1015.7 |
| 20260504042506 | 43 | 0 | 0.0 | 0.0 | 0.00 | 0.00 | 0.00 | 78 | 1015.7 |
| 20260504042004 | 43 | 0 | 0.0 | 0.0 | 0.00 | 0.00 | 0.00 | 78 | 1015.8 |
| 20260504041525 | 43 | 0 | 0.0 | 0.0 | 0.00 | 0.00 | 0.00 | 78 | 1015.7 |
| 20260504041026 | 43 | 0 | 0.0 | 0.0 | 0.00 | 0.00 | 0.00 | 78 | 1015.7 |
| 20260504040504 | 43 | 0 | 0.0 | 0.0 | 0.00 | 0.00 | 0.00 | 78 | 1015.7 |
| 20260504040026 | 43 | 0 | 0.0 | 0.0 | 0.00 | 0.00 | 0.00 | 78 | 1015.8 |
| 20260504035525 | 43 | 0 | 0.0 | 0.0 | 0.00 | 0.00 | 0.00 | 78 | 1015.7 |
| 20260504035026 | 43 | 0 | 0.0 | 0.0 | 0.00 | 0.00 | 0.00 | 79 | 1015.6 |
| 20260504034525 | 43 | 0 | 0.0 | 0.0 | 0.00 | 0.00 | 0.00 | 79 | 1015.5 |
| 20260504034006 | 44 | 0 | 0.0 | 0.0 | 0.00 | 0.00 | 0.00 | 79 | 1015.6 |
| 20260504033505 | 44 | 0 | 0.0 | 0.0 | 0.00 | 0.00 | 0.00 | 78 | 1015.5 |
| 20260504033004 | 44 | 0 | 0.0 | 0.0 | 0.00 | 0.00 | 0.00 | 78 | 1015.4 |
| 20260504032526 | 44 | 0 | 0.0 | 0.0 | 0.00 | 0.00 | 0.00 | 77 | 1015.4 |
| 20260504032025 | 44 | 0 | 0.0 | 0.0 | 0.00 | 0.00 | 0.00 | 77 | 1015.3 |
| 20260504031505 | 44 | 0 | 0.0 | 0.0 | 0.00 | 0.00 | 0.00 | 75 | 1015.2 |
| 20260504031004 | 44 | 0 | 0.0 | 0.0 | 0.00 | 0.00 | 0.00 | 75 | 1015.1 |
| 20260504030526 | 45 | 0 | 0.0 | 0.0 | 0.00 | 0.00 | 0.00 | 74 | 1015.2 |
| 20260504030026 | 45 | 0 | 0.0 | 0.0 | 0.00 | 0.00 | 0.00 | 73 | 1015.2 |
| 20260504025526 | 45 | 0 | 0.0 | 0.0 | 0.00 | 0.00 | 0.00 | 72 | 1015.2 |
| 20260504025005 | 45 | 0 | 0.0 | 0.0 | 0.00 | 0.00 | 0.00 | 72 | 1015.3 |
| 20260504024504 | 45 | 0 | 0.0 | 0.0 | 0.00 | 0.00 | 0.00 | 72 | 1015.2 |
| 20260504024025 | 46 | 0 | 0.0 | 0.0 | 0.00 | 0.00 | 0.00 | 70 | 1015.2 |
| 20260504023505 | 46 | 0 | 0.0 | 0.0 | 0.00 | 0.00 | 0.00 | 70 | 1015.2 |
| 20260504023026 | 46 | 0 | 0.0 | 0.0 | 0.00 | 0.00 | 0.00 | 69 | 1015.2 |
| 20260504022504 | 46 | 0 | 0.0 | 0.0 | 0.00 | 0.00 | 0.00 | 68 | 1015.2 |
| 20260504022005 | 47 | 0 | 0.0 | 0.0 | 0.00 | 0.00 | 0.00 | 68 | 1015.2 |
| 20260504021505 | 47 | 0 | 0.0 | 0.0 | 0.00 | 0.00 | 0.00 | 67 | 1015.2 |
| 20260504021025 | 47 | 0 | 0.0 | 0.0 | 0.00 | 0.00 | 0.00 | 65 | 1015.1 |
| 20260504020505 | 48 | 0 | 0.0 | 0.0 | 0.00 | 0.00 | 0.00 | 65 | 1015.1 |
| 20260504015505 | 48 | 0 | 0.0 | 0.0 | 0.00 | 0.00 | 0.00 | 64 | 1015.1 |
| 20260504015005 | 49 | 0 | 0.0 | 0.0 | 0.00 | 0.00 | 0.00 | 62 | 1015.0 |
| 20260504014506 | 49 | 0 | 0.0 | 0.0 | 0.00 | 0.00 | 0.00 | 61 | 1015.1 |
| 20260504014004 | 49 | 0 | 0.0 | 0.0 | 0.00 | 0.00 | 0.00 | 60 | 1015.1 |
| 20260504013504 | 50 | 0 | 0.0 | 0.0 | 0.00 | 0.00 | 0.00 | 59 | 1015.0 |
| 20260504013004 | 50 | 0 | 0.0 | 0.0 | 0.00 | 0.00 | 0.00 | 58 | 1014.9 |
| 20260504012504 | 50 | 0 | 0.0 | 0.0 | 0.00 | 0.00 | 0.00 | 57 | 1014.9 |
| 20260504012005 | 51 | 0 | 0.0 | 0.0 | 0.00 | 0.00 | 0.00 | 56 | 1014.9 |
| 20260504011506 | 51 | 0 | 0.0 | 0.0 | 0.00 | 0.00 | 0.00 | 55 | 1014.8 |
| 20260504011026 | 52 | 0 | 0.0 | 0.0 | 0.00 | 0.00 | 0.00 | 53 | 1014.8 |
| 20260504010525 | 52 | 0 | 0.0 | 0.0 | 0.00 | 0.00 | 0.00 | 53 | 1014.8 |
| 20260504010026 | 53 | 0 | 0.0 | 0.0 | 0.00 | 0.00 | 0.00 | 51 | 1014.8 |
| 20260504005526 | 54 | 0 | 0.0 | 0.0 | 0.00 | 0.00 | 0.00 | 48 | 1014.8 |
| 20260504005005 | 54 | 0 | 0.0 | 0.0 | 0.00 | 0.00 | 0.00 | 48 | 1014.7 |
| 20260504004525 | 55 | 0 | 0.0 | 0.0 | 0.00 | 0.00 | 0.00 | 47 | 1014.7 |
| 20260504004025 | 55 | 0 | 0.0 | 0.0 | 0.00 | 0.00 | 0.00 | 45 | 1014.6 |
| 20260504003505 | 56 | 0 | 0.0 | 0.0 | 0.00 | 0.00 | 0.00 | 44 | 1014.6 |
| 20260504003026 | 56 | 0 | 0.0 | 0.0 | 0.00 | 0.00 | 0.00 | 43 | 1014.5 |
| 20260504002505 | 56 | 236 | 0.0 | 0.9 | 0.00 | 0.00 | 0.00 | 44 | 1014.4 |
| 20260504002004 | 57 | 236 | 0.0 | 0.9 | 0.00 | 0.00 | 0.00 | 43 | 1014.4 |
| 20260504001527 | 58 | 236 | 0.0 | 0.9 | 0.00 | 0.00 | 0.00 | 40 | 1014.3 |
| 20260504001025 | 58 | 236 | 0.0 | 0.9 | 0.00 | 0.00 | 0.00 | 39 | 1014.3 |
| 20260504000504 | 59 | 230 | 0.0 | 2.6 | 0.00 | 0.00 | 0.00 | 38 | 1014.2 |
| 20260504000026 | 59 | 229 | 0.0 | 2.6 | 0.00 | 0.00 | 0.00 | 36 | 1014.1 |
| 20260503235525 | 60 | 206 | 0.0 | 0.9 | 0.00 | 0.00 | 0.00 | 36 | 1014.1 |
| 20260503235005 | 60 | 205 | 0.0 | 2.6 | 0.00 | 0.00 | 0.00 | 35 | 1014.2 |
| 20260503234525 | 60 | 208 | 0.9 | 2.6 | 0.00 | 0.00 | 0.00 | 35 | 1014.1 |
| 20260503234026 | 61 | 212 | 0.9 | 2.6 | 0.00 | 0.00 | 0.00 | 33 | 1014.0 |
| 20260503233525 | 61 | 211 | 0.9 | 4.3 | 0.00 | 0.00 | 0.00 | 33 | 1013.9 |
| 20260503233004 | 61 | 215 | 0.9 | 4.3 | 0.00 | 0.00 | 0.00 | 32 | 1013.9 |
| 20260503232526 | 62 | 228 | 0.9 | 4.3 | 0.00 | 0.00 | 0.00 | 32 | 1013.8 |
| 20260503232025 | 62 | 247 | 2.6 | 6.1 | 0.00 | 0.00 | 0.00 | 31 | 1013.8 |
| 20260503231505 | 62 | 244 | 2.6 | 7.0 | 0.00 | 0.00 | 0.00 | 31 | 1013.8 |
| 20260503231004 | 63 | 234 | 1.7 | 5.2 | 0.00 | 0.00 | 0.00 | 31 | 1013.9 |
| 20260503230505 | 63 | 271 | 1.7 | 3.5 | 0.00 | 0.00 | 0.00 | 31 | 1013.8 |
| 20260503230025 | 63 | 265 | 2.6 | 7.0 | 0.00 | 0.00 | 0.00 | 31 | 1013.8 |
| 20260503225505 | 63 | 240 | 2.6 | 7.0 | 0.00 | 0.00 | 0.00 | 31 | 1013.9 |
| 20260503225004 | 63 | 248 | 2.6 | 7.0 | 0.00 | 0.00 | 0.00 | 31 | 1013.9 |
| 20260503224525 | 63 | 257 | 2.6 | 7.8 | 0.00 | 0.00 | 0.00 | 30 | 1013.9 |
| 20260503224005 | 63 | 266 | 1.7 | 7.8 | 0.00 | 0.00 | 0.00 | 30 | 1013.9 |
| 20260503223525 | 63 | 309 | 1.7 | 4.3 | 0.00 | 0.00 | 0.00 | 30 | 1013.9 |
| 20260503223005 | 63 | 319 | 1.7 | 4.3 | 0.00 | 0.00 | 0.00 | 30 | 1013.9 |
| 20260503222525 | 63 | 303 | 2.6 | 11.3 | 0.00 | 0.00 | 0.00 | 30 | 1013.8 |
| 20260503222004 | 63 | 265 | 2.6 | 12.2 | 0.00 | 0.00 | 0.00 | 30 | 1013.9 |
| 20260503221525 | 63 | 239 | 3.5 | 13.0 | 0.00 | 0.00 | 0.00 | 31 | 1013.8 |